Time,TemperatureF,DewpointF,PressureIn,WindDirection,WindDirectionDegrees,WindSpeedMPH,WindSpeedGustMPH,Humidity,HourlyPrecipIn,Conditions,Clouds,dailyrainin,SoftwareType,DateUTC
2013-10-14 00:00:00,42.4,41.1,30.42,SE,129,0.0,0.0,95,0.00,,,0.00,WeatherCatV1.15B25,2013-10-14 04:00:00,
2013-10-14 00:01:00,42.3,41.0,30.42,SE,129,0.0,0.0,95,0.00,,,0.00,WeatherCatV1.15B25,2013-10-14 04:01:00,
2013-10-14 00:02:00,42.3,41.0,30.42,SE,129,0.0,0.0,95,0.00,,,0.00,WeatherCatV1.15B25,2013-10-14 04:02:00,
2013-10-14 00:03:00,42.2,40.9,30.42,SE,129,0.0,0.0,95,0.00,,,0.00,WeatherCatV1.15B25,2013-10-14 04:03:00,
2013-10-14 00:04:00,42.2,40.9,30.42,SE,129,0.0,0.0,95,0.00,,,0.00,WeatherCatV1.15B25,2013-10-14 04:04:00,
2013-10-14 00:09:00,42.0,40.7,30.42,SE,129,0.0,0.0,95,0.00,,,0.00,WeatherCatV1.15B25,2013-10-14 04:09:00,
2013-10-14 00:14:00,41.8,40.5,30.42,SE,129,0.0,0.0,95,0.00,,,0.00,WeatherCatV1.15B25,2013-10-14 04:14:00,
2013-10-14 00:19:00,41.6,40.3,30.42,SE,129,0.0,0.0,95,0.00,,,0.00,WeatherCatV1.15B25,2013-10-14 04:19:00,
2013-10-14 00:24:00,41.5,40.2,30.42,SE,129,0.0,0.0,95,0.00,,,0.00,WeatherCatV1.15B25,2013-10-14 04:24:00,
2013-10-14 00:29:00,41.6,40.5,30.42,SE,129,0.0,0.0,96,0.00,,,0.00,WeatherCatV1.15B25,2013-10-14 04:29:00,
2013-10-14 00:34:00,41.8,40.7,30.42,SE,129,0.0,0.0,96,0.00,,,0.00,WeatherCatV1.15B25,2013-10-14 04:34:00,
2013-10-14 00:39:00,41.7,40.6,30.42,SE,129,0.0,0.0,96,0.00,,,0.00,WeatherCatV1.15B25,2013-10-14 04:39:00,
2013-10-14 00:44:00,41.6,40.5,30.42,SE,129,0.0,0.0,96,0.00,,,0.00,WeatherCatV1.15B25,2013-10-14 04:44:00,
2013-10-14 00:49:00,41.6,40.5,30.42,SE,129,0.0,0.0,96,0.00,,,0.00,WeatherCatV1.15B25,2013-10-14 04:49:00,
2013-10-14 00:54:00,41.5,40.4,30.42,SE,129,0.0,0.0,96,0.00,,,0.00,WeatherCatV1.15B25,2013-10-14 04:54:00,
2013-10-14 00:59:00,41.4,40.3,30.42,SE,129,0.0,0.0,96,0.00,,,0.00,WeatherCatV1.15B25,2013-10-14 04:59:00,
2013-10-14 01:04:00,41.3,40.2,30.42,SE,129,0.0,0.0,96,0.00,,,0.00,WeatherCatV1.15B25,2013-10-14 05:04:00,
2013-10-14 01:09:00,41.2,40.1,30.42,SE,129,0.0,0.0,96,0.00,,,0.00,WeatherCatV1.15B25,2013-10-14 05:09:00,
2013-10-14 01:14:00,41.0,39.9,30.42,SE,129,0.0,0.0,96,0.00,,,0.00,WeatherCatV1.15B25,2013-10-14 05:14:00,
2013-10-14 01:19:00,41.0,39.9,30.42,SE,129,0.0,0.0,96,0.00,,,0.00,WeatherCatV1.15B25,2013-10-14 05:19:00,
2013-10-14 01:24:00,41.0,39.9,30.41,SE,129,0.0,0.0,96,0.00,,,0.00,WeatherCatV1.15B25,2013-10-14 05:24:00,
2013-10-14 01:29:00,41.1,40.0,30.41,SE,129,0.0,0.0,96,0.00,,,0.00,WeatherCatV1.15B25,2013-10-14 05:29:00,
2013-10-14 01:34:00,41.0,39.9,30.41,SE,129,0.0,0.0,96,0.00,,,0.00,WeatherCatV1.15B25,2013-10-14 05:34:00,
2013-10-14 01:39:00,40.9,39.8,30.41,SE,129,0.0,0.0,96,0.00,,,0.00,WeatherCatV1.15B25,2013-10-14 05:39:00,
2013-10-14 01:44:00,41.0,39.9,30.41,SE,129,0.0,0.0,96,0.00,,,0.00,WeatherCatV1.15B25,2013-10-14 05:44:00,
2013-10-14 01:49:00,40.8,39.7,30.41,SE,129,0.0,0.0,96,0.00,,,0.00,WeatherCatV1.15B25,2013-10-14 05:49:00,
2013-10-14 01:54:00,40.7,39.6,30.41,SE,129,0.0,0.0,96,0.00,,,0.00,WeatherCatV1.15B25,2013-10-14 05:54:00,
2013-10-14 01:59:00,40.4,39.4,30.41,SE,129,0.0,0.0,96,0.00,,,0.00,WeatherCatV1.15B25,2013-10-14 05:59:00,
2013-10-14 02:04:00,40.1,39.1,30.40,SE,129,0.0,0.0,96,0.00,,,0.00,WeatherCatV1.15B25,2013-10-14 06:04:00,
2013-10-14 02:09:00,39.9,38.9,30.40,SE,129,0.0,0.0,96,0.00,,,0.00,WeatherCatV1.15B25,2013-10-14 06:09:00,
2013-10-14 02:14:00,39.9,38.9,30.40,SE,129,0.0,0.0,96,0.00,,,0.00,WeatherCatV1.15B25,2013-10-14 06:14:00,
2013-10-14 02:19:00,39.9,38.9,30.40,SE,129,0.0,0.0,96,0.00,,,0.00,WeatherCatV1.15B25,2013-10-14 06:19:00,
2013-10-14 02:24:00,39.8,38.8,30.40,SE,129,0.0,0.0,96,0.00,,,0.00,WeatherCatV1.15B25,2013-10-14 06:24:00,
2013-10-14 02:29:00,39.7,38.7,30.40,SE,129,0.0,0.0,96,0.00,,,0.00,WeatherCatV1.15B25,2013-10-14 06:29:00,
2013-10-14 02:34:00,39.6,38.6,30.40,SE,129,0.0,0.0,96,0.00,,,0.00,WeatherCatV1.15B25,2013-10-14 06:34:00,
2013-10-14 02:39:00,39.5,38.5,30.40,SE,129,0.0,0.0,96,0.00,,,0.00,WeatherCatV1.15B25,2013-10-14 06:39:00,
2013-10-14 02:44:00,39.5,38.5,30.39,SE,129,0.0,0.0,96,0.00,,,0.00,WeatherCatV1.15B25,2013-10-14 06:44:00,
2013-10-14 02:49:00,39.5,38.5,30.39,SE,129,0.0,0.0,96,0.00,,,0.00,WeatherCatV1.15B25,2013-10-14 06:49:00,
2013-10-14 02:54:00,39.4,38.4,30.39,SE,129,0.0,0.0,96,0.00,,,0.00,WeatherCatV1.15B25,2013-10-14 06:54:00,
2013-10-14 02:59:00,39.3,38.3,30.39,SE,129,0.0,0.0,96,0.00,,,0.00,WeatherCatV1.15B25,2013-10-14 06:59:00,
2013-10-14 03:04:00,39.1,38.1,30.39,SE,129,0.0,0.0,96,0.00,,,0.00,WeatherCatV1.15B25,2013-10-14 07:04:00,
2013-10-14 03:09:00,39.0,38.0,30.39,SE,129,0.0,0.0,96,0.00,,,0.00,WeatherCatV1.15B25,2013-10-14 07:09:00,
2013-10-14 03:14:00,39.3,38.3,30.39,SE,129,0.0,0.0,96,0.00,,,0.00,WeatherCatV1.15B25,2013-10-14 07:14:00,
2013-10-14 03:19:00,39.6,38.8,30.39,SE,129,0.0,0.0,97,0.00,,,0.00,WeatherCatV1.15B25,2013-10-14 07:19:00,
2013-10-14 03:24:00,39.7,38.9,30.39,SE,129,0.0,0.0,97,0.00,,,0.00,WeatherCatV1.15B25,2013-10-14 07:24:00,
2013-10-14 03:29:00,39.9,39.1,30.39,SE,129,0.0,0.0,97,0.00,,,0.00,WeatherCatV1.15B25,2013-10-14 07:29:00,
2013-10-14 03:34:00,39.9,39.1,30.39,SW,230,0.0,0.0,97,0.00,,,0.00,WeatherCatV1.15B25,2013-10-14 07:34:00,
2013-10-14 03:39:00,39.9,39.1,30.39,SW,230,0.0,1.0,97,0.00,,,0.00,WeatherCatV1.15B25,2013-10-14 07:39:00,
2013-10-14 03:44:00,40.0,39.2,30.39,WNW,303,0.0,1.0,97,0.00,,,0.00,WeatherCatV1.15B25,2013-10-14 07:44:00,
2013-10-14 03:49:00,40.0,39.2,30.39,NW,304,0.0,0.0,97,0.00,,,0.00,WeatherCatV1.15B25,2013-10-14 07:49:00,
2013-10-14 03:54:00,39.9,39.1,30.39,NW,321,0.0,2.0,97,0.00,,,0.00,WeatherCatV1.15B25,2013-10-14 07:54:00,
2013-10-14 03:59:00,39.8,39.0,30.39,NW,321,0.0,1.0,97,0.00,,,0.00,WeatherCatV1.15B25,2013-10-14 07:59:00,
2013-10-14 04:04:00,39.8,39.0,30.39,NW,314,0.0,1.0,97,0.00,,,0.00,WeatherCatV1.15B25,2013-10-14 08:04:00,
2013-10-14 04:09:00,39.8,39.0,30.39,WNW,299,0.0,1.0,97,0.00,,,0.00,WeatherCatV1.15B25,2013-10-14 08:09:00,
2013-10-14 04:14:00,39.8,39.0,30.39,WNW,298,0.0,1.0,97,0.00,,,0.00,WeatherCatV1.15B25,2013-10-14 08:14:00,
2013-10-14 04:19:00,39.7,38.9,30.39,WNW,298,0.0,1.0,97,0.00,,,0.00,WeatherCatV1.15B25,2013-10-14 08:19:00,
2013-10-14 04:24:00,39.6,38.8,30.39,WNW,297,0.0,1.0,97,0.00,,,0.00,WeatherCatV1.15B25,2013-10-14 08:24:00,
2013-10-14 04:29:00,39.4,38.4,30.39,WNW,287,0.0,2.0,96,0.00,,,0.00,WeatherCatV1.15B25,2013-10-14 08:29:00,
2013-10-14 04:34:00,39.3,38.3,30.39,WNW,283,0.0,2.0,96,0.00,,,0.00,WeatherCatV1.15B25,2013-10-14 08:34:00,
2013-10-14 04:39:00,39.2,38.4,30.39,WNW,283,0.0,2.0,97,0.00,,,0.00,WeatherCatV1.15B25,2013-10-14 08:39:00,
2013-10-14 04:44:00,39.2,38.4,30.39,WNW,284,0.0,2.0,97,0.00,,,0.00,WeatherCatV1.15B25,2013-10-14 08:44:00,
2013-10-14 04:49:00,39.2,38.4,30.39,NNW,332,0.0,2.0,97,0.00,,,0.00,WeatherCatV1.15B25,2013-10-14 08:49:00,
2013-10-14 04:54:00,39.2,38.4,30.38,WNW,284,0.0,1.0,97,0.00,,,0.00,WeatherCatV1.15B25,2013-10-14 08:54:00,
2013-10-14 04:59:00,39.2,38.4,30.39,NW,318,0.0,2.0,97,0.00,,,0.00,WeatherCatV1.15B25,2013-10-14 08:59:00,
2013-10-14 05:04:00,39.2,38.4,30.39,WNW,295,1.0,1.0,97,0.00,,,0.00,WeatherCatV1.15B25,2013-10-14 09:04:00,
2013-10-14 05:09:00,39.1,38.3,30.39,NW,304,0.0,1.0,97,0.00,,,0.00,WeatherCatV1.15B25,2013-10-14 09:09:00,
2013-10-14 05:14:00,39.1,38.3,30.39,West,279,0.0,0.0,97,0.00,,,0.00,WeatherCatV1.15B25,2013-10-14 09:14:00,
2013-10-14 05:19:00,39.1,38.3,30.39,WNW,285,1.0,1.0,97,0.00,,,0.00,WeatherCatV1.15B25,2013-10-14 09:19:00,
2013-10-14 05:24:00,39.1,38.3,30.39,WNW,300,1.0,2.0,97,0.00,,,0.00,WeatherCatV1.15B25,2013-10-14 09:24:00,
2013-10-14 05:29:00,39.0,38.2,30.39,WNW,283,0.0,1.0,97,0.00,,,0.00,WeatherCatV1.15B25,2013-10-14 09:29:00,
2013-10-14 05:34:00,39.0,38.2,30.39,WNW,283,0.0,1.0,97,0.00,,,0.00,WeatherCatV1.15B25,2013-10-14 09:34:00,
2013-10-14 05:39:00,39.0,38.2,30.39,WNW,283,0.0,1.0,97,0.00,,,0.00,WeatherCatV1.15B25,2013-10-14 09:39:00,
2013-10-14 05:44:00,39.1,38.3,30.39,WNW,283,0.0,0.0,97,0.00,,,0.00,WeatherCatV1.15B25,2013-10-14 09:44:00,
2013-10-14 05:49:00,39.1,38.3,30.39,WNW,283,0.0,0.0,97,0.00,,,0.00,WeatherCatV1.15B25,2013-10-14 09:49:00,
2013-10-14 05:54:00,39.1,38.3,30.39,WNW,283,0.0,0.0,97,0.00,,,0.00,WeatherCatV1.15B25,2013-10-14 09:54:00,
2013-10-14 05:59:00,39.0,38.2,30.39,WNW,283,0.0,0.0,97,0.00,,,0.00,WeatherCatV1.15B25,2013-10-14 09:59:00,
2013-10-14 06:04:00,39.0,38.2,30.39,WNW,283,0.0,0.0,97,0.00,,,0.00,WeatherCatV1.15B25,2013-10-14 10:04:00,
2013-10-14 06:09:00,38.9,38.1,30.39,WNW,283,0.0,0.0,97,0.00,,,0.00,WeatherCatV1.15B25,2013-10-14 10:09:00,
2013-10-14 06:14:00,38.8,38.0,30.39,WNW,283,0.0,0.0,97,0.00,,,0.00,WeatherCatV1.15B25,2013-10-14 10:14:00,
2013-10-14 06:19:00,38.8,38.0,30.39,WNW,283,0.0,0.0,97,0.00,,,0.00,WeatherCatV1.15B25,2013-10-14 10:19:00,
2013-10-14 06:24:00,38.7,37.9,30.39,WNW,283,0.0,0.0,97,0.00,,,0.00,WeatherCatV1.15B25,2013-10-14 10:24:00,
2013-10-14 06:29:00,38.7,37.9,30.39,WNW,283,0.0,0.0,97,0.00,,,0.00,WeatherCatV1.15B25,2013-10-14 10:29:00,
2013-10-14 06:34:00,38.7,37.9,30.38,WNW,283,0.0,0.0,97,0.00,,,0.00,WeatherCatV1.15B25,2013-10-14 10:34:00,
2013-10-14 06:39:00,38.8,38.0,30.38,WNW,283,0.0,0.0,97,0.00,,,0.00,WeatherCatV1.15B25,2013-10-14 10:39:00,
2013-10-14 06:44:00,38.9,38.1,30.39,WNW,283,0.0,0.0,97,0.00,,,0.00,WeatherCatV1.15B25,2013-10-14 10:44:00,
2013-10-14 06:49:00,38.9,38.1,30.38,WNW,283,0.0,0.0,97,0.00,,,0.00,WeatherCatV1.15B25,2013-10-14 10:49:00,
2013-10-14 06:54:00,39.1,38.3,30.38,WNW,283,0.0,0.0,97,0.00,,,0.00,WeatherCatV1.15B25,2013-10-14 10:54:00,
2013-10-14 06:59:00,39.1,38.3,30.38,WNW,283,0.0,0.0,97,0.00,,,0.00,WeatherCatV1.15B25,2013-10-14 10:59:00,
2013-10-14 07:04:00,39.1,38.3,30.39,WNW,283,0.0,0.0,97,0.00,,,0.00,WeatherCatV1.15B25,2013-10-14 11:04:00,
2013-10-14 07:09:00,39.0,38.2,30.39,WNW,283,0.0,0.0,97,0.00,,,0.00,WeatherCatV1.15B25,2013-10-14 11:09:00,
2013-10-14 07:14:00,38.9,38.1,30.39,WNW,283,0.0,0.0,97,0.00,,,0.00,WeatherCatV1.15B25,2013-10-14 11:14:00,
2013-10-14 07:19:00,38.8,38.0,30.39,WNW,283,0.0,0.0,97,0.00,,,0.00,WeatherCatV1.15B25,2013-10-14 11:19:00,
2013-10-14 07:24:00,38.8,38.0,30.39,WNW,283,0.0,0.0,97,0.00,,,0.00,WeatherCatV1.15B25,2013-10-14 11:24:00,
2013-10-14 07:29:00,38.9,38.1,30.39,WNW,283,0.0,0.0,97,0.00,,,0.00,WeatherCatV1.15B25,2013-10-14 11:29:00,
2013-10-14 07:34:00,38.9,38.1,30.40,WNW,283,1.0,1.0,97,0.00,,,0.00,WeatherCatV1.15B25,2013-10-14 11:34:00,
2013-10-14 07:39:00,39.0,38.2,30.40,WNW,297,0.0,0.0,97,0.00,,,0.00,WeatherCatV1.15B25,2013-10-14 11:39:00,
2013-10-14 07:44:00,39.1,38.3,30.40,WNW,297,0.0,0.0,97,0.00,,,0.00,WeatherCatV1.15B25,2013-10-14 11:44:00,
2013-10-14 07:49:00,39.1,38.3,30.40,WNW,297,0.0,1.0,97,0.00,,,0.00,WeatherCatV1.15B25,2013-10-14 11:49:00,
2013-10-14 07:54:00,39.3,38.5,30.40,WNW,297,1.0,1.0,97,0.00,,,0.00,WeatherCatV1.15B25,2013-10-14 11:54:00,
2013-10-14 07:59:00,39.2,38.4,30.40,NW,309,0.0,0.0,97,0.00,,,0.00,WeatherCatV1.15B25,2013-10-14 11:59:00,
2013-10-14 08:04:00,39.3,38.5,30.40,NW,309,0.0,0.0,97,0.00,,,0.00,WeatherCatV1.15B25,2013-10-14 12:04:00,
2013-10-14 08:09:00,39.5,38.7,30.40,NW,304,0.0,1.0,97,0.00,,,0.00,WeatherCatV1.15B25,2013-10-14 12:09:00,
2013-10-14 08:14:00,39.6,38.8,30.40,NW,304,0.0,2.0,97,0.00,,,0.00,WeatherCatV1.15B25,2013-10-14 12:14:00,
2013-10-14 08:19:00,39.7,38.9,30.41,NW,321,0.0,0.0,97,0.00,,,0.00,WeatherCatV1.15B25,2013-10-14 12:19:00,
2013-10-14 08:24:00,39.9,39.1,30.41,NW,324,0.0,2.0,97,0.00,,,0.00,WeatherCatV1.15B25,2013-10-14 12:24:00,
2013-10-14 08:29:00,39.9,39.1,30.41,NW,304,1.0,3.0,97,0.00,,,0.00,WeatherCatV1.15B25,2013-10-14 12:29:00,
2013-10-14 08:34:00,39.8,39.0,30.41,North,11,0.0,0.0,97,0.00,,,0.00,WeatherCatV1.15B25,2013-10-14 12:34:00,
2013-10-14 08:39:00,39.9,39.1,30.41,WNW,296,0.0,0.0,97,0.00,,,0.00,WeatherCatV1.15B25,2013-10-14 12:39:00,
2013-10-14 08:44:00,40.1,39.3,30.40,WNW,296,0.0,1.0,97,0.00,,,0.00,WeatherCatV1.15B25,2013-10-14 12:44:00,
2013-10-14 08:49:00,40.5,39.7,30.40,WNW,295,0.0,0.0,97,0.00,,,0.00,WeatherCatV1.15B25,2013-10-14 12:49:00,
2013-10-14 08:54:00,40.8,40.0,30.40,WNW,296,0.0,0.0,97,0.00,,,0.00,WeatherCatV1.15B25,2013-10-14 12:54:00,
2013-10-14 08:59:00,41.2,40.4,30.40,WNW,296,0.0,0.0,97,0.00,,,0.00,WeatherCatV1.15B25,2013-10-14 12:59:00,
2013-10-14 09:04:00,41.7,41.2,30.40,WNW,296,0.0,0.0,98,0.00,,,0.00,WeatherCatV1.15B25,2013-10-14 13:04:00,
2013-10-14 09:09:00,42.0,41.5,30.40,WNW,295,1.0,1.0,98,0.00,,,0.00,WeatherCatV1.15B25,2013-10-14 13:09:00,
2013-10-14 09:14:00,42.2,41.7,30.40,West,268,0.0,0.0,98,0.00,,,0.00,WeatherCatV1.15B25,2013-10-14 13:14:00,
2013-10-14 09:19:00,42.9,42.4,30.40,WNW,285,0.0,1.0,98,0.00,,,0.00,WeatherCatV1.15B25,2013-10-14 13:19:00,
2013-10-14 09:24:00,43.2,42.7,30.40,NW,308,0.0,0.0,98,0.00,,,0.00,WeatherCatV1.15B25,2013-10-14 13:24:00,
2013-10-14 09:29:00,43.8,43.3,30.40,NW,308,0.0,0.0,98,0.00,,,0.00,WeatherCatV1.15B25,2013-10-14 13:29:00,
2013-10-14 09:34:00,44.7,44.2,30.40,NW,308,0.0,0.0,98,0.00,,,0.00,WeatherCatV1.15B25,2013-10-14 13:34:00,
2013-10-14 09:39:00,45.2,44.4,30.39,NW,308,0.0,0.0,97,0.00,,,0.00,WeatherCatV1.15B25,2013-10-14 13:39:00,
2013-10-14 09:44:00,46.4,45.6,30.39,NW,309,0.0,0.0,97,0.00,,,0.00,WeatherCatV1.15B25,2013-10-14 13:44:00,
2013-10-14 09:49:00,47.3,46.8,30.39,NW,310,0.0,0.0,98,0.00,,,0.00,WeatherCatV1.15B25,2013-10-14 13:49:00,
2013-10-14 09:54:00,47.7,46.9,30.39,NW,309,0.0,0.0,97,0.00,,,0.00,WeatherCatV1.15B25,2013-10-14 13:54:00,
2013-10-14 09:59:00,48.8,48.0,30.39,ESE,119,0.0,2.0,97,0.00,,,0.00,WeatherCatV1.15B25,2013-10-14 13:59:00,
2013-10-14 10:04:00,49.2,48.4,30.39,ESE,118,0.0,0.0,97,0.00,,,0.00,WeatherCatV1.15B25,2013-10-14 14:04:00,
2013-10-14 10:09:00,50.2,49.4,30.39,ESE,122,0.0,1.0,97,0.00,,,0.00,WeatherCatV1.15B25,2013-10-14 14:09:00,
2013-10-14 10:14:00,51.2,49.8,30.39,ENE,70,0.0,1.0,95,0.00,,,0.00,WeatherCatV1.15B25,2013-10-14 14:14:00,
2013-10-14 10:19:00,52.2,49.7,30.38,ESE,114,0.0,1.0,91,0.00,,,0.00,WeatherCatV1.15B25,2013-10-14 14:19:00,
2013-10-14 10:24:00,52.8,49.0,30.38,ESE,117,0.0,2.0,87,0.00,,,0.00,WeatherCatV1.15B25,2013-10-14 14:24:00,
2013-10-14 10:29:00,53.4,49.0,30.38,NW,326,0.0,1.0,85,0.00,,,0.00,WeatherCatV1.15B25,2013-10-14 14:29:00,
2013-10-14 10:34:00,53.5,49.1,30.38,NE,41,0.0,0.0,85,0.00,,,0.00,WeatherCatV1.15B25,2013-10-14 14:34:00,
2013-10-14 10:39:00,54.0,49.0,30.38,ESE,104,0.0,1.0,83,0.00,,,0.00,WeatherCatV1.15B25,2013-10-14 14:39:00,
2013-10-14 10:44:00,54.8,48.4,30.38,ESE,108,0.0,1.0,79,0.00,,,0.00,WeatherCatV1.15B25,2013-10-14 14:44:00,
2013-10-14 10:49:00,55.5,48.8,30.37,East,101,0.0,1.0,78,0.00,,,0.00,WeatherCatV1.15B25,2013-10-14 14:49:00,
2013-10-14 10:54:00,56.0,48.9,30.37,ESE,112,2.0,3.0,77,0.00,,,0.00,WeatherCatV1.15B25,2013-10-14 14:54:00,
2013-10-14 10:59:00,56.5,48.7,30.37,ESE,110,0.0,1.0,75,0.00,,,0.00,WeatherCatV1.15B25,2013-10-14 14:59:00,
2013-10-14 11:04:00,57.2,49.0,30.37,ESE,105,0.0,1.0,74,0.00,,,0.00,WeatherCatV1.15B25,2013-10-14 15:04:00,
2013-10-14 11:09:00,56.7,48.1,30.37,NNW,342,1.0,1.0,73,0.00,,,0.00,WeatherCatV1.15B25,2013-10-14 15:09:00,
2013-10-14 11:14:00,57.1,48.5,30.36,ESE,119,2.0,3.0,73,0.00,,,0.00,WeatherCatV1.15B25,2013-10-14 15:14:00,
2013-10-14 11:19:00,57.2,47.1,30.36,ESE,102,1.0,3.0,69,0.00,,,0.00,WeatherCatV1.15B25,2013-10-14 15:19:00,
2013-10-14 11:24:00,57.4,46.5,30.36,SE,124,0.0,2.0,67,0.00,,,0.00,WeatherCatV1.15B25,2013-10-14 15:24:00,
2013-10-14 11:29:00,57.7,45.2,30.36,ESE,123,1.0,2.0,63,0.00,,,0.00,WeatherCatV1.15B25,2013-10-14 15:29:00,
2013-10-14 11:34:00,57.8,45.3,30.35,SE,129,0.0,1.0,63,0.00,,,0.00,WeatherCatV1.15B25,2013-10-14 15:34:00,
2013-10-14 11:39:00,57.8,46.5,30.35,West,280,0.0,1.0,66,0.00,,,0.00,WeatherCatV1.15B25,2013-10-14 15:39:00,
2013-10-14 11:44:00,58.4,46.3,30.35,WNW,282,0.0,1.0,64,0.00,,,0.00,WeatherCatV1.15B25,2013-10-14 15:44:00,
2013-10-14 11:49:00,59.0,45.1,30.35,SE,134,0.0,5.0,60,0.00,,,0.00,WeatherCatV1.15B25,2013-10-14 15:49:00,
2013-10-14 11:54:00,59.5,45.2,30.35,ENE,58,0.0,1.0,59,0.00,,,0.00,WeatherCatV1.15B25,2013-10-14 15:54:00,
2013-10-14 11:59:00,59.7,44.9,30.34,East,80,1.0,2.0,58,0.00,,,0.00,WeatherCatV1.15B25,2013-10-14 15:59:00,
2013-10-14 12:04:00,60.2,43.5,30.34,ESE,110,1.0,1.0,54,0.00,,,0.00,WeatherCatV1.15B25,2013-10-14 16:04:00,
2013-10-14 12:09:00,60.2,43.5,30.34,ENE,73,1.0,5.0,54,0.00,,,0.00,WeatherCatV1.15B25,2013-10-14 16:09:00,
2013-10-14 12:14:00,60.3,43.6,30.34,ESE,108,2.0,5.0,54,0.00,,,0.00,WeatherCatV1.15B25,2013-10-14 16:14:00,
2013-10-14 12:19:00,60.5,42.3,30.34,ENE,65,0.0,3.0,51,0.00,,,0.00,WeatherCatV1.15B25,2013-10-14 16:19:00,
2013-10-14 12:24:00,60.8,42.0,30.33,SE,139,0.0,4.0,50,0.00,,,0.00,WeatherCatV1.15B25,2013-10-14 16:24:00,
2013-10-14 12:29:00,60.8,41.5,30.33,SE,131,2.0,3.0,49,0.00,,,0.00,WeatherCatV1.15B25,2013-10-14 16:29:00,
2013-10-14 12:34:00,60.9,42.1,30.33,NW,314,0.0,4.0,50,0.00,,,0.00,WeatherCatV1.15B25,2013-10-14 16:34:00,
2013-10-14 12:39:00,61.3,42.5,30.32,SE,130,0.0,3.0,50,0.00,,,0.00,WeatherCatV1.15B25,2013-10-14 16:39:00,
2013-10-14 12:44:00,61.7,41.8,30.32,SE,129,1.0,2.0,48,0.00,,,0.00,WeatherCatV1.15B25,2013-10-14 16:44:00,
2013-10-14 12:49:00,61.7,40.7,30.32,ESE,108,2.0,4.0,46,0.00,,,0.00,WeatherCatV1.15B25,2013-10-14 16:49:00,
2013-10-14 12:54:00,61.3,40.3,30.32,ESE,105,1.0,2.0,46,0.00,,,0.00,WeatherCatV1.15B25,2013-10-14 16:54:00,
2013-10-14 12:59:00,61.0,41.2,30.31,NNW,328,0.0,0.0,48,0.00,,,0.00,WeatherCatV1.15B25,2013-10-14 16:59:00,
2013-10-14 13:04:00,61.1,41.3,30.31,SE,126,0.0,6.0,48,0.00,,,0.00,WeatherCatV1.15B25,2013-10-14 17:04:00,
2013-10-14 13:09:00,61.2,41.9,30.31,East,90,0.0,2.0,49,0.00,,,0.00,WeatherCatV1.15B25,2013-10-14 17:09:00,
2013-10-14 13:14:00,61.8,42.4,30.31,ESE,106,1.0,4.0,49,0.00,,,0.00,WeatherCatV1.15B25,2013-10-14 17:14:00,
2013-10-14 13:19:00,62.1,42.7,30.30,SE,142,0.0,1.0,49,0.00,,,0.00,WeatherCatV1.15B25,2013-10-14 17:19:00,
2013-10-14 13:24:00,62.4,41.9,30.30,WSW,258,0.0,1.0,47,0.00,,,0.00,WeatherCatV1.15B25,2013-10-14 17:24:00,
2013-10-14 13:29:00,62.9,40.6,30.30,ESE,108,3.0,4.0,44,0.00,,,0.00,WeatherCatV1.15B25,2013-10-14 17:29:00,
2013-10-14 13:34:00,62.6,40.4,30.30,ESE,116,0.0,3.0,44,0.00,,,0.00,WeatherCatV1.15B25,2013-10-14 17:34:00,
2013-10-14 13:39:00,62.4,41.9,30.30,SE,126,0.0,1.0,47,0.00,,,0.00,WeatherCatV1.15B25,2013-10-14 17:39:00,
2013-10-14 13:44:00,62.8,42.8,30.30,East,98,1.0,1.0,48,0.00,,,0.00,WeatherCatV1.15B25,2013-10-14 17:44:00,
2013-10-14 13:49:00,63.3,42.7,30.29,SE,129,1.0,1.0,47,0.00,,,0.00,WeatherCatV1.15B25,2013-10-14 17:49:00,
2013-10-14 13:54:00,63.2,42.6,30.29,SE,142,0.0,1.0,47,0.00,,,0.00,WeatherCatV1.15B25,2013-10-14 17:54:00,
2013-10-14 13:59:00,63.0,43.0,30.29,ESE,108,0.0,1.0,48,0.00,,,0.00,WeatherCatV1.15B25,2013-10-14 17:59:00,
2013-10-14 14:04:00,63.1,41.4,30.29,ESE,120,0.0,2.0,45,0.00,,,0.00,WeatherCatV1.15B25,2013-10-14 18:04:00,
2013-10-14 14:09:00,62.7,41.0,30.29,East,101,0.0,2.0,45,0.00,,,0.00,WeatherCatV1.15B25,2013-10-14 18:09:00,
2013-10-14 14:14:00,62.5,41.4,30.29,ESE,110,3.0,4.0,46,0.00,,,0.00,WeatherCatV1.15B25,2013-10-14 18:14:00,
2013-10-14 14:19:00,62.6,42.1,30.29,SE,133,0.0,1.0,47,0.00,,,0.00,WeatherCatV1.15B25,2013-10-14 18:19:00,
2013-10-14 14:24:00,63.0,42.4,30.28,ESE,115,3.0,4.0,47,0.00,,,0.00,WeatherCatV1.15B25,2013-10-14 18:24:00,
2013-10-14 14:29:00,63.0,42.4,30.28,East,96,2.0,4.0,47,0.00,,,0.00,WeatherCatV1.15B25,2013-10-14 18:29:00,
2013-10-14 14:34:00,62.7,43.3,30.28,East,92,1.0,1.0,49,0.00,,,0.00,WeatherCatV1.15B25,2013-10-14 18:34:00,
2013-10-14 14:39:00,63.2,43.7,30.28,ESE,120,0.0,1.0,49,0.00,,,0.00,WeatherCatV1.15B25,2013-10-14 18:39:00,
2013-10-14 14:44:00,63.5,43.5,30.28,NE,40,2.0,3.0,48,0.00,,,0.00,WeatherCatV1.15B25,2013-10-14 18:44:00,
2013-10-14 14:49:00,63.6,43.0,30.28,ESE,107,0.0,2.0,47,0.00,,,0.00,WeatherCatV1.15B25,2013-10-14 18:49:00,
2013-10-14 14:54:00,63.8,42.0,30.28,ESE,116,0.0,2.0,45,0.00,,,0.00,WeatherCatV1.15B25,2013-10-14 18:54:00,
2013-10-14 14:59:00,63.8,43.2,30.28,NW,320,0.0,0.0,47,0.00,,,0.00,WeatherCatV1.15B25,2013-10-14 18:59:00,
2013-10-14 15:04:00,64.0,42.8,30.28,ESE,104,0.0,1.0,46,0.00,,,0.00,WeatherCatV1.15B25,2013-10-14 19:04:00,
2013-10-14 15:09:00,64.0,42.8,30.28,WSW,253,0.0,1.0,46,0.00,,,0.00,WeatherCatV1.15B25,2013-10-14 19:09:00,
2013-10-14 15:14:00,64.2,43.0,30.28,East,91,0.0,1.0,46,0.00,,,0.00,WeatherCatV1.15B25,2013-10-14 19:14:00,
2013-10-14 15:19:00,64.2,42.4,30.27,West,278,0.0,1.0,45,0.00,,,0.00,WeatherCatV1.15B25,2013-10-14 19:19:00,
2013-10-14 15:24:00,64.4,42.6,30.27,ESE,108,4.0,4.0,45,0.00,,,0.00,WeatherCatV1.15B25,2013-10-14 19:24:00,
2013-10-14 15:29:00,64.2,42.4,30.27,SE,134,1.0,3.0,45,0.00,,,0.00,WeatherCatV1.15B25,2013-10-14 19:29:00,
2013-10-14 15:34:00,64.2,43.0,30.27,WSW,255,0.0,1.0,46,0.00,,,0.00,WeatherCatV1.15B25,2013-10-14 19:34:00,
2013-10-14 15:39:00,64.5,44.9,30.27,South,186,0.0,0.0,49,0.00,,,0.00,WeatherCatV1.15B25,2013-10-14 19:39:00,
2013-10-14 15:44:00,64.8,44.1,30.27,East,98,0.0,1.0,47,0.00,,,0.00,WeatherCatV1.15B25,2013-10-14 19:44:00,
2013-10-14 15:49:00,64.5,42.7,30.26,ESE,115,0.0,1.0,45,0.00,,,0.00,WeatherCatV1.15B25,2013-10-14 19:49:00,
2013-10-14 15:54:00,63.9,43.8,30.26,ESE,112,0.0,0.0,48,0.00,,,0.00,WeatherCatV1.15B25,2013-10-14 19:54:00,
2013-10-14 15:59:00,63.5,42.9,30.26,SE,124,0.0,1.0,47,0.00,,,0.00,WeatherCatV1.15B25,2013-10-14 19:59:00,
2013-10-14 16:04:00,63.4,43.4,30.26,ESE,115,0.0,1.0,48,0.00,,,0.00,WeatherCatV1.15B25,2013-10-14 20:04:00,
2013-10-14 16:09:00,63.4,42.8,30.26,ESE,116,1.0,2.0,47,0.00,,,0.00,WeatherCatV1.15B25,2013-10-14 20:09:00,
2013-10-14 16:14:00,63.4,42.8,30.26,ESE,115,0.0,0.0,47,0.00,,,0.00,WeatherCatV1.15B25,2013-10-14 20:14:00,
2013-10-14 16:19:00,63.4,42.8,30.26,SE,126,0.0,1.0,47,0.00,,,0.00,WeatherCatV1.15B25,2013-10-14 20:19:00,
2013-10-14 16:24:00,63.3,43.8,30.26,ESE,117,1.0,3.0,49,0.00,,,0.00,WeatherCatV1.15B25,2013-10-14 20:24:00,
2013-10-14 16:29:00,63.1,44.7,30.26,ESE,118,0.0,0.0,51,0.00,,,0.00,WeatherCatV1.15B25,2013-10-14 20:29:00,
2013-10-14 16:35:00,63.0,43.5,30.26,ESE,110,0.0,5.0,49,0.00,,,0.00,WeatherCatV1.15B25,2013-10-14 20:35:00,
2013-10-14 16:40:00,63.0,43.0,30.26,ESE,123,0.0,2.0,48,0.00,,,0.00,WeatherCatV1.15B25,2013-10-14 20:40:00,
2013-10-14 16:45:00,62.9,44.0,30.26,ESE,122,0.0,1.0,50,0.00,,,0.00,WeatherCatV1.15B25,2013-10-14 20:45:00,
2013-10-14 16:50:00,62.7,43.8,30.26,ESE,121,0.0,1.0,50,0.00,,,0.00,WeatherCatV1.15B25,2013-10-14 20:50:00,
2013-10-14 16:55:00,62.6,42.6,30.26,SE,127,0.0,1.0,48,0.00,,,0.00,WeatherCatV1.15B25,2013-10-14 20:55:00,
2013-10-14 17:00:00,62.5,43.1,30.26,SE,143,0.0,1.0,49,0.00,,,0.00,WeatherCatV1.15B25,2013-10-14 21:00:00,
2013-10-14 17:02:00,62.5,43.1,30.26,SE,139,0.0,1.0,49,0.00,,,0.00,WeatherCatV1.15B25,2013-10-14 21:02:00,
2013-10-14 17:07:00,62.4,43.5,30.26,SE,138,0.0,0.0,50,0.00,,,0.00,WeatherCatV1.15B25,2013-10-14 21:07:00,
2013-10-14 17:12:00,62.2,43.8,30.26,ESE,117,0.0,1.0,51,0.00,,,0.00,WeatherCatV1.15B25,2013-10-14 21:12:00,
2013-10-14 17:17:00,61.9,44.6,30.26,ESE,112,0.0,0.0,53,0.00,,,0.00,WeatherCatV1.15B25,2013-10-14 21:17:00,
2013-10-14 17:22:00,61.5,43.7,30.26,ESE,120,0.0,1.0,52,0.00,,,0.00,WeatherCatV1.15B25,2013-10-14 21:22:00,
2013-10-14 17:27:00,61.2,44.4,30.26,ESE,120,0.0,0.0,54,0.00,,,0.00,WeatherCatV1.15B25,2013-10-14 21:27:00,
2013-10-14 17:32:00,60.8,44.0,30.26,ESE,120,0.0,0.0,54,0.00,,,0.00,WeatherCatV1.15B25,2013-10-14 21:32:00,
2013-10-14 17:37:00,60.5,43.8,30.27,ESE,120,0.0,0.0,54,0.00,,,0.00,WeatherCatV1.15B25,2013-10-14 21:37:00,
2013-10-14 17:42:00,60.1,45.3,30.27,ESE,120,0.0,1.0,58,0.00,,,0.00,WeatherCatV1.15B25,2013-10-14 21:42:00,
2013-10-14 17:47:00,59.7,44.9,30.27,ESE,120,0.0,0.0,58,0.00,,,0.00,WeatherCatV1.15B25,2013-10-14 21:47:00,
2013-10-14 17:52:00,59.2,45.8,30.26,ESE,120,0.0,0.0,61,0.00,,,0.00,WeatherCatV1.15B25,2013-10-14 21:52:00,
2013-10-14 17:57:00,58.8,45.4,30.27,ESE,120,0.0,0.0,61,0.00,,,0.00,WeatherCatV1.15B25,2013-10-14 21:57:00,
2013-10-14 18:02:00,58.3,45.3,30.27,ESE,118,0.0,3.0,62,0.00,,,0.00,WeatherCatV1.15B25,2013-10-14 22:02:00,
2013-10-14 18:07:00,58.0,45.9,30.27,ESE,118,0.0,1.0,64,0.00,,,0.00,WeatherCatV1.15B25,2013-10-14 22:07:00,
2013-10-14 18:12:00,57.7,46.4,30.27,SE,130,0.0,1.0,66,0.00,,,0.00,WeatherCatV1.15B25,2013-10-14 22:12:00,
2013-10-14 18:17:00,57.3,46.4,30.27,SE,130,0.0,1.0,67,0.00,,,0.00,WeatherCatV1.15B25,2013-10-14 22:17:00,
2013-10-14 18:22:00,57.0,46.9,30.27,SE,130,0.0,0.0,69,0.00,,,0.00,WeatherCatV1.15B25,2013-10-14 22:22:00,
2013-10-14 18:27:00,56.6,47.3,30.27,SE,130,0.0,1.0,71,0.00,,,0.00,WeatherCatV1.15B25,2013-10-14 22:27:00,
2013-10-14 18:32:00,56.3,47.8,30.28,SE,129,0.0,1.0,73,0.00,,,0.00,WeatherCatV1.15B25,2013-10-14 22:32:00,
2013-10-14 18:37:00,56.1,48.3,30.28,SE,129,1.0,1.0,75,0.00,,,0.00,WeatherCatV1.15B25,2013-10-14 22:37:00,
2013-10-14 18:43:00,55.9,48.4,30.28,SE,129,1.0,1.0,76,0.00,,,0.00,WeatherCatV1.15B25,2013-10-14 22:43:00,
2013-10-14 18:48:00,55.7,48.6,30.28,SE,129,0.0,0.0,77,0.00,,,0.00,WeatherCatV1.15B25,2013-10-14 22:48:00,
2013-10-14 18:53:00,55.5,48.8,30.28,SE,129,0.0,0.0,78,0.00,,,0.00,WeatherCatV1.15B25,2013-10-14 22:53:00,
2013-10-14 18:58:00,55.2,48.8,30.28,SE,129,0.0,1.0,79,0.00,,,0.00,WeatherCatV1.15B25,2013-10-14 22:58:00,
2013-10-14 19:03:00,55.0,48.9,30.28,SE,129,0.0,0.0,80,0.00,,,0.00,WeatherCatV1.15B25,2013-10-14 23:03:00,
2013-10-14 19:08:00,54.8,48.7,30.28,SE,129,0.0,1.0,80,0.00,,,0.00,WeatherCatV1.15B25,2013-10-14 23:08:00,
2013-10-14 19:13:00,54.6,48.9,30.28,SE,129,0.0,0.0,81,0.00,,,0.00,WeatherCatV1.15B25,2013-10-14 23:13:00,
2013-10-14 19:18:00,54.4,49.0,30.28,SE,129,0.0,0.0,82,0.00,,,0.00,WeatherCatV1.15B25,2013-10-14 23:18:00,
2013-10-14 19:23:00,54.2,48.8,30.28,SE,129,0.0,0.0,82,0.00,,,0.00,WeatherCatV1.15B25,2013-10-14 23:23:00,
2013-10-14 19:28:00,54.0,49.0,30.28,SE,129,0.0,0.0,83,0.00,,,0.00,WeatherCatV1.15B25,2013-10-14 23:28:00,
2013-10-14 19:33:00,54.1,49.1,30.28,SE,129,0.0,1.0,83,0.00,,,0.00,WeatherCatV1.15B25,2013-10-14 23:33:00,
2013-10-14 19:38:00,54.2,49.1,30.29,SE,129,0.0,0.0,83,0.00,,,0.00,WeatherCatV1.15B25,2013-10-14 23:38:00,
2013-10-14 19:43:00,54.2,49.1,30.29,SE,129,0.0,1.0,83,0.00,,,0.00,WeatherCatV1.15B25,2013-10-14 23:43:00,
2013-10-14 19:48:00,54.3,49.2,30.29,SE,129,0.0,0.0,83,0.00,,,0.00,WeatherCatV1.15B25,2013-10-14 23:48:00,
2013-10-14 19:53:00,54.4,49.3,30.29,SE,129,0.0,0.0,83,0.00,,,0.00,WeatherCatV1.15B25,2013-10-14 23:53:00,
2013-10-14 19:58:00,54.4,49.7,30.29,SE,129,0.0,0.0,84,0.00,,,0.00,WeatherCatV1.15B25,2013-10-14 23:58:00,
2013-10-14 20:03:00,54.5,49.4,30.29,SE,129,0.0,0.0,83,0.00,,,0.00,WeatherCatV1.15B25,2013-10-15 00:03:00,
2013-10-14 20:08:00,54.5,49.4,30.29,SE,129,0.0,0.0,83,0.00,,,0.00,WeatherCatV1.15B25,2013-10-15 00:08:00,
2013-10-14 20:13:00,54.6,49.5,30.29,SE,129,0.0,0.0,83,0.00,,,0.00,WeatherCatV1.15B25,2013-10-15 00:13:00,
2013-10-14 20:18:00,54.7,49.6,30.28,SE,129,0.0,1.0,83,0.00,,,0.00,WeatherCatV1.15B25,2013-10-15 00:18:00,
2013-10-14 20:23:00,54.7,49.6,30.29,SE,129,0.0,0.0,83,0.00,,,0.00,WeatherCatV1.15B25,2013-10-15 00:23:00,
2013-10-14 20:28:00,54.7,49.6,30.29,SE,129,0.0,0.0,83,0.00,,,0.00,WeatherCatV1.15B25,2013-10-15 00:28:00,
2013-10-14 20:33:00,54.8,49.7,30.29,SE,129,0.0,0.0,83,0.00,,,0.00,WeatherCatV1.15B25,2013-10-15 00:33:00,
2013-10-14 20:38:00,54.8,50.1,30.29,SE,129,0.0,0.0,84,0.00,,,0.00,WeatherCatV1.15B25,2013-10-15 00:38:00,
2013-10-14 20:43:00,54.8,50.1,30.28,SE,129,0.0,0.0,84,0.00,,,0.00,WeatherCatV1.15B25,2013-10-15 00:43:00,
2013-10-14 20:48:00,54.7,50.0,30.28,SE,129,0.0,0.0,84,0.00,,,0.00,WeatherCatV1.15B25,2013-10-15 00:48:00,
2013-10-14 20:53:00,54.8,49.7,30.28,SE,129,0.0,0.0,83,0.00,,,0.00,WeatherCatV1.15B25,2013-10-15 00:53:00,
2013-10-14 20:58:00,54.8,49.7,30.28,SE,129,0.0,0.0,83,0.00,,,0.00,WeatherCatV1.15B25,2013-10-15 00:58:00,
2013-10-14 21:03:00,54.7,49.6,30.28,SE,129,0.0,1.0,83,0.00,,,0.00,WeatherCatV1.15B25,2013-10-15 01:03:00,
2013-10-14 21:08:00,54.7,49.6,30.28,SE,129,0.0,1.0,83,0.00,,,0.00,WeatherCatV1.15B25,2013-10-15 01:08:00,
2013-10-14 21:13:00,54.5,49.4,30.27,SE,129,0.0,0.0,83,0.00,,,0.00,WeatherCatV1.15B25,2013-10-15 01:13:00,
2013-10-14 21:18:00,54.5,49.4,30.28,SE,129,0.0,0.0,83,0.00,,,0.00,WeatherCatV1.15B25,2013-10-15 01:18:00,
2013-10-14 21:23:00,54.3,49.2,30.28,SE,129,0.0,0.0,83,0.00,,,0.00,WeatherCatV1.15B25,2013-10-15 01:23:00,
2013-10-14 21:28:00,54.1,49.1,30.28,SE,129,0.0,0.0,83,0.00,,,0.00,WeatherCatV1.15B25,2013-10-15 01:28:00,
2013-10-14 21:33:00,53.8,49.1,30.28,SE,129,0.0,0.0,84,0.00,,,0.00,WeatherCatV1.15B25,2013-10-15 01:33:00,
2013-10-14 21:38:00,53.4,48.7,30.28,SE,129,0.0,0.0,84,0.00,,,0.00,WeatherCatV1.15B25,2013-10-15 01:38:00,
2013-10-14 21:43:00,53.1,48.4,30.28,SE,129,0.0,0.0,84,0.00,,,0.00,WeatherCatV1.15B25,2013-10-15 01:43:00,
2013-10-14 21:48:00,52.8,48.4,30.28,SE,129,0.0,0.0,85,0.00,,,0.00,WeatherCatV1.15B25,2013-10-15 01:48:00,
2013-10-14 21:53:00,52.6,47.9,30.28,SE,129,0.0,0.0,84,0.00,,,0.00,WeatherCatV1.15B25,2013-10-15 01:53:00,
2013-10-14 21:58:00,52.5,47.5,30.28,SE,129,0.0,0.0,83,0.00,,,0.00,WeatherCatV1.15B25,2013-10-15 01:58:00,
2013-10-14 22:03:00,52.4,47.4,30.28,SE,129,0.0,0.0,83,0.00,,,0.00,WeatherCatV1.15B25,2013-10-15 02:03:00,
2013-10-14 22:08:00,52.4,47.4,30.28,SE,129,0.0,0.0,83,0.00,,,0.00,WeatherCatV1.15B25,2013-10-15 02:08:00,
2013-10-14 22:13:00,52.3,47.3,30.28,SE,129,0.0,0.0,83,0.00,,,0.00,WeatherCatV1.15B25,2013-10-15 02:13:00,
2013-10-14 22:18:00,52.3,47.3,30.27,SE,129,0.0,1.0,83,0.00,,,0.00,WeatherCatV1.15B25,2013-10-15 02:18:00,
2013-10-14 22:23:00,52.2,47.2,30.27,SE,129,0.0,0.0,83,0.00,,,0.00,WeatherCatV1.15B25,2013-10-15 02:23:00,
2013-10-14 22:28:00,52.2,47.2,30.27,SE,129,0.0,0.0,83,0.00,,,0.00,WeatherCatV1.15B25,2013-10-15 02:28:00,
2013-10-14 22:33:00,52.1,46.8,30.27,SE,129,0.0,0.0,82,0.00,,,0.00,WeatherCatV1.15B25,2013-10-15 02:33:00,
2013-10-14 22:38:00,52.1,46.8,30.27,SE,129,0.0,0.0,82,0.00,,,0.00,WeatherCatV1.15B25,2013-10-15 02:38:00,
2013-10-14 22:43:00,52.1,46.8,30.27,SE,129,0.0,0.0,82,0.00,,,0.00,WeatherCatV1.15B25,2013-10-15 02:43:00,
2013-10-14 22:48:00,52.0,46.7,30.27,SE,129,0.0,0.0,82,0.00,,,0.00,WeatherCatV1.15B25,2013-10-15 02:48:00,
2013-10-14 22:53:00,51.8,46.8,30.27,SE,129,0.0,0.0,83,0.00,,,0.00,WeatherCatV1.15B25,2013-10-15 02:53:00,
2013-10-14 22:58:00,51.6,46.6,30.27,SE,129,0.0,0.0,83,0.00,,,0.00,WeatherCatV1.15B25,2013-10-15 02:58:00,
2013-10-14 23:03:00,51.4,46.4,30.27,SE,129,0.0,0.0,83,0.00,,,0.00,WeatherCatV1.15B25,2013-10-15 03:03:00,
2013-10-14 23:08:00,51.3,46.3,30.27,SE,129,0.0,0.0,83,0.00,,,0.00,WeatherCatV1.15B25,2013-10-15 03:08:00,
2013-10-14 23:13:00,51.1,46.4,30.27,SE,129,0.0,0.0,84,0.00,,,0.00,WeatherCatV1.15B25,2013-10-15 03:13:00,
2013-10-14 23:18:00,50.9,46.2,30.27,SE,129,0.0,0.0,84,0.00,,,0.00,WeatherCatV1.15B25,2013-10-15 03:18:00,
2013-10-14 23:23:00,50.8,46.1,30.27,SE,129,0.0,0.0,84,0.00,,,0.00,WeatherCatV1.15B25,2013-10-15 03:23:00,
2013-10-14 23:28:00,50.6,46.3,30.27,SE,129,0.0,0.0,85,0.00,,,0.00,WeatherCatV1.15B25,2013-10-15 03:28:00,
2013-10-14 23:33:00,50.6,46.3,30.27,SE,129,0.0,0.0,85,0.00,,,0.00,WeatherCatV1.15B25,2013-10-15 03:33:00,
2013-10-14 23:38:00,50.6,46.3,30.27,SE,129,0.0,0.0,85,0.00,,,0.00,WeatherCatV1.15B25,2013-10-15 03:38:00,
2013-10-14 23:43:00,50.6,46.3,30.27,SE,129,0.0,0.0,85,0.00,,,0.00,WeatherCatV1.15B25,2013-10-15 03:43:00,
2013-10-14 23:49:00,50.7,46.4,30.27,SE,129,0.0,0.0,85,0.00,,,0.00,WeatherCatV1.15B25,2013-10-15 03:49:00,
2013-10-14 23:54:00,50.7,46.4,30.27,SE,129,0.0,0.0,85,0.00,,,0.00,WeatherCatV1.15B25,2013-10-15 03:54:00,
2013-10-14 23:59:00,50.8,46.8,30.27,SE,129,0.0,0.0,86,0.00,,,0.00,WeatherCatV1.15B25,2013-10-15 03:59:00,